URSSUDYZ

Guest
Details From URSS - Sochi
To UDYZ - ZVARTNOTS
Flight Number -
Tags decoded
Created
Modified
Stats Distance 281 nm / 520 km
Max Altitude 0 ft / 0 m
Waypoints 2
Social Downloads 0
Likes 0
Share VATSIM

Download

Looking for another format? Having issues loading an existing format? Contact us
Advertisement - Login to hide

Notes

Requested: URSS TABAN2B UDYZ Unmatched points: TABAN2B

Route

URSS UDYZ

ID Type Via Altitude Latitude Longitude Leg Dist Tot Dist Heading (true) Name
O URSS APT - 0 ft / 0 m 43.44475˚ 39.94730˚ - 0 nm - Sochi
O UDYZ APT - 0 ft / 0 m 40.14727˚ 44.39588˚ 280 nm 280 nm 133° / 136° ZVARTNOTS

Altitude Profile

Advertisement - Login to hide

Weather


0- 5 10 15 20 25 30 35+ Temperature / ° C

Clouds and Precipitation
Forecast for 2018-06-23 18:00 UTC. Updated a few seconds ago

Ground ~20,000 ft ~40,000 ft Winds

URSS

Details ICAO URSS (AER)
Name Sochi
Region Russia
Timezone Europe/Moscow (UTC+3.0)
Stats Elevation 89 ft / 27 m (AMSL)
Location 43.444749° 39.947302°
Runways 2
Magnetic Variation 7.010° E

METAR

URSS 231530Z 13003MPS 9999 SCT020CB 25/21 Q1009 WS ALL RWY R02/090070 R06/090070 TEMPO -TSRA BKN020CB RMK R06/14004MPS MT OBSC QFE756

Decode

TAF

TAF URSS 231358Z 2315/2415 16007MPS 9999 SCT015 BKN020CB OVC100 TEMPO 2315/2317 VRB09G14MPS 1500 TSRA BKN006 BKN020CB OVC100 FM231700 06005MPS 9999 BKN013 BKN020CB OVC100 TEMPO 2317/2406 VRB07G12MPS 1500 TSRA BKN006 BKN020CB OVC100 BECMG 2407/2409 26006MPS

Decode

Departure Runways

ID Width Length Bearing (true) Bearing (mag) Surface Threshold Offset Overrun Length
02 161 ft / 49 m 7,267 ft / 2,215 m 28.98° 21.97° Concrete 0 ft / 0 m 0 ft / 0 m
06 164 ft / 50 m 9,531 ft / 2,905 m 64.90° 57.89° Concrete 262 ft / 80 m 0 ft / 0 m
20 161 ft / 49 m 7,267 ft / 2,215 m 208.99° 201.98° Concrete 0 ft / 0 m 0 ft / 0 m
24 164 ft / 50 m 9,531 ft / 2,905 m 244.92° 237.91° Concrete 0 ft / 0 m 0 ft / 0 m

UDYZ

Details ICAO UDYZ (EVN)
Name ZVARTNOTS
Region Armenia
Timezone Asia/Yerevan (UTC+4.0)
Stats Elevation 2,838 ft / 865 m (AMSL)
Location 40.147271° 44.395880°
Runways 1
Magnetic Variation 6.241° E

METAR

UDYZ 231530Z 29010KT 9999 FEW040CB 26/09 Q1010 R09/000070 TEMPO -TSRA

Decode

TAF

Not found

Destination Runways

ID Width Length Bearing (true) Bearing (mag) Surface Threshold Offset Overrun Length
09 184 ft / 56 m 12,601 ft / 3,841 m 89.59° 83.35° Asphalt 0 ft / 0 m 0 ft / 0 m
27 184 ft / 56 m 12,601 ft / 3,841 m 269.62° 263.38° Asphalt 0 ft / 0 m 0 ft / 0 m

Approach Navaids

Runway Type Ident Frequency Range Bearing (true) Bearing (mag) Slope Elevation
09 Localiser IZR 108.10 MHz 18 nm / 33 km 89.83° 83.59° - 2,838 ft / 865 m (AMSL)
09 Glidescope IZR 108.10 MHz 10 nm / 19 km 89.61° 83.37° 2.67° 2,838 ft / 865 m (AMSL)

Popular Alternatives